Newberry, MI

1:57 PM EDT on May 21, 2018 (GMT -0400)
Luce County

Weather History for KERY - October, 2013

Change the Weather History Date:

Tuesday, October 8, 2013

  Actual Average Record
Temperature  
Mean Temperature 50 °F -  
Max Temperature 63 °F 54 °F 78 °F (2007)
Min Temperature 37 °F 38 °F 23 °F (1926)
Degree Days  
Heating Degree Days 15    
Moisture  
Dew Point 44 °F    
Average Humidity 78    
Maximum Humidity 99    
Minimum Humidity 56    
Precipitation  
Precipitation 0.00 in - - ()
Sea Level Pressure  
Sea Level Pressure 30.11 in    
Wind  
Wind Speed 8 mph (SSW)    
Max Wind Speed 18 mph    
Max Gust Speed 28 mph    
Visibility 10 miles    
Events      
Averages and records for this station are not official NWS values.
T = Trace of Precipitation, MM = Missing Value Source: NWS Daily Summary

Daily Weather History Graph

Daily Weather History Graph

Search for Another Location

Airport or City:

Astronomy

Oct. 08, 2013 Rise Set
Actual Time 7:49 AM EDT 7:07 PM EDT
Civil Twilight 7:19 AM EDT 7:37 PM EDT
Nautical Twilight 6:45 AM EDT 8:12 PM EDT
Astronomical Twilight 6:09 AM EDT 8:47 PM EDT
Moon 11:56 AM EDT (10/8) 9:30 PM EDT (10/8)
Length of Visible Light 12h 18m
Length of Day
11h 17m
Waxing Crescent, 16% of the Moon is Illuminated
Oct 8
Waxing Crescent
Oct 11
First Quarter
Oct 18
Full
Oct 26
Last Quarter
Nov 3
New

Hourly Weather History & Observations

Time (EDT) Temp. Windchill Dew Point Humidity Pressure Visibility Wind Dir Wind Speed Gust Speed Precip Events Conditions
12:17 AM 39.0 °F 34.8 °F 38.1 °F 97% 30.03 in 10.0 mi SW 5.8 mph - N/A   Clear
12:37 AM 38.1 °F 34.6 °F 37.8 °F 99% 30.03 in 10.0 mi SW 4.6 mph - N/A   Clear
12:57 AM 38.8 °F 34.6 °F 38.3 °F 98% 30.03 in 10.0 mi SW 5.8 mph - N/A   Clear
1:17 AM 39.6 °F 35.4 °F 38.8 °F 97% 30.04 in 10.0 mi SW 5.8 mph - N/A   Clear
1:38 AM 38.5 °F 35.0 °F 37.8 °F 97% 30.04 in 10.0 mi SW 4.6 mph - N/A   Clear
1:57 AM 38.3 °F 33.2 °F 37.4 °F 97% 30.05 in 10.0 mi SW 6.9 mph - N/A   Clear
2:17 AM 38.3 °F 33.2 °F 37.2 °F 96% 30.05 in 10.0 mi SW 6.9 mph - N/A   Clear
2:38 AM 38.3 °F 33.2 °F 37.4 °F 97% 30.06 in 10.0 mi SW 6.9 mph - N/A   Clear
2:57 AM 38.5 °F 34.1 °F 37.0 °F 95% 30.06 in 10.0 mi SW 5.8 mph - N/A   Clear
3:17 AM 37.0 °F 31.6 °F 35.8 °F 95% 30.06 in 10.0 mi SSW 6.9 mph - N/A   Clear
3:38 AM 37.8 °F 32.5 °F 36.0 °F 93% 30.06 in 10.0 mi SSW 6.9 mph - N/A   Clear
3:57 AM 38.3 °F 33.9 °F 36.1 °F 92% 30.07 in 10.0 mi SSW 5.8 mph - N/A   Clear
4:17 AM 37.4 °F 32.8 °F 35.6 °F 93% 30.07 in 10.0 mi SSW 5.8 mph - N/A   Clear
4:37 AM 38.1 °F 32.9 °F 36.1 °F 93% 30.08 in 10.0 mi SSW 6.9 mph - N/A   Clear
4:57 AM 38.1 °F 32.9 °F 36.1 °F 93% 30.09 in 10.0 mi SW 6.9 mph - N/A   Clear
5:18 AM 38.3 °F 33.2 °F 36.5 °F 93% 30.09 in 10.0 mi SW 6.9 mph - N/A   Clear
5:37 AM 38.7 °F 33.6 °F 36.7 °F 93% 30.10 in 10.0 mi SSW 6.9 mph - N/A   Clear
5:57 AM 39.2 °F 33.6 °F 37.0 °F 92% 30.11 in 10.0 mi SSW 8.1 mph - N/A   Clear
6:17 AM 38.7 °F 33.6 °F 36.7 °F 93% 30.11 in 10.0 mi SSW 6.9 mph - N/A   Clear
6:37 AM 39.4 °F 34.5 °F 37.4 °F 93% 30.11 in 10.0 mi SSW 6.9 mph - N/A   Clear
6:57 AM 39.6 °F 35.4 °F 37.4 °F 92% 30.12 in 10.0 mi SSW 5.8 mph - N/A   Clear
7:17 AM 39.6 °F 35.4 °F 37.8 °F 93% 30.12 in 10.0 mi SSW 5.8 mph - N/A   Clear
7:37 AM 39.7 °F 35.6 °F 38.3 °F 95% 30.13 in 10.0 mi SSW 5.8 mph - N/A   Clear
7:58 AM 40.1 °F 36.1 °F 38.3 °F 93% 30.13 in 10.0 mi SSW 5.8 mph - N/A   Clear
8:17 AM 43.9 °F 39.3 °F 41.4 °F 91% 30.14 in 10.0 mi South 8.1 mph - N/A   Clear
8:38 AM 45.9 °F 42.3 °F 43.0 °F 90% 30.14 in 10.0 mi South 6.9 mph - N/A   Clear
8:57 AM 47.7 °F - 43.7 °F 86% 30.15 in 10.0 mi South 8.1 mph - N/A   Clear
9:17 AM 49.3 °F - 45.5 °F 87% 30.15 in 10.0 mi SSW 6.9 mph - N/A   Clear
9:37 AM 51.4 °F - 46.4 °F 83% 30.15 in 10.0 mi South 9.2 mph - N/A   Clear
9:58 AM 53.1 °F - 47.7 °F 82% 30.16 in 10.0 mi South 8.1 mph - N/A   Clear
10:17 AM 54.5 °F - 48.4 °F 80% 30.16 in 10.0 mi South 10.4 mph - N/A   Clear
10:37 AM 55.8 °F - 48.6 °F 77% 30.15 in 10.0 mi South 10.4 mph - N/A   Clear
10:58 AM 57.0 °F - 48.2 °F 72% 30.15 in 10.0 mi South 10.4 mph - N/A   Clear
11:17 AM 58.1 °F - 47.5 °F 68% 30.15 in 10.0 mi South 13.8 mph 18.4 mph N/A   Clear
11:37 AM 58.8 °F - 45.7 °F 62% 30.15 in 10.0 mi South 16.1 mph 20.7 mph N/A   Clear
11:57 AM 59.5 °F - 45.5 °F 60% 30.16 in 10.0 mi SSW 12.7 mph 21.9 mph N/A   Clear
12:17 PM 60.6 °F - 45.1 °F 57% 30.16 in 10.0 mi South 17.3 mph 21.9 mph N/A   Clear
12:37 PM 60.4 °F - 45.0 °F 57% 30.16 in 10.0 mi South 17.3 mph 23.0 mph N/A   Clear
12:57 PM 60.4 °F - 45.3 °F 57% 30.16 in 10.0 mi South 15.0 mph 23.0 mph N/A   Clear
1:17 PM 61.7 °F - 46.2 °F 57% 30.15 in 10.0 mi South 11.5 mph 18.4 mph N/A   Clear
1:37 PM 62.1 °F - 46.2 °F 56% 30.15 in 10.0 mi South 13.8 mph 18.4 mph N/A   Clear
1:57 PM 62.4 °F - 47.3 °F 58% 30.15 in 10.0 mi South 10.4 mph 18.4 mph N/A   Clear
2:18 PM 62.2 °F - 47.3 °F 58% 30.14 in 10.0 mi South 13.8 mph 20.7 mph N/A   Clear
2:37 PM 62.6 °F - 48.7 °F 60% 30.14 in 10.0 mi South 10.4 mph 21.9 mph N/A   Clear
2:57 PM 62.4 °F - 48.4 °F 60% 30.13 in 10.0 mi South 11.5 mph 18.4 mph N/A   Clear
3:18 PM 63.1 °F - 48.6 °F 59% 30.13 in 10.0 mi South 13.8 mph 19.6 mph N/A   Clear
3:37 PM 62.8 °F - 47.7 °F 58% 30.13 in 10.0 mi South 12.7 mph 20.7 mph N/A   Clear
3:57 PM 63.3 °F - 49.6 °F 61% 30.13 in 10.0 mi South 17.3 mph 26.5 mph N/A   Clear
4:17 PM 62.1 °F - 51.1 °F 67% 30.12 in 10.0 mi South 15.0 mph 24.2 mph N/A   Scattered Clouds
4:37 PM 61.9 °F - 50.7 °F 67% 30.12 in 10.0 mi South 16.1 mph 24.2 mph N/A   Clear
4:58 PM 62.2 °F - 48.2 °F 60% 30.12 in 10.0 mi South 18.4 mph 27.6 mph N/A   Clear
5:17 PM 62.6 °F - 48.9 °F 61% 30.12 in 10.0 mi SSW 16.1 mph 21.9 mph N/A   Clear
5:37 PM 60.8 °F - 48.7 °F 64% 30.12 in 10.0 mi South 10.4 mph 20.7 mph N/A   Clear
5:58 PM 60.8 °F - 48.6 °F 64% 30.11 in 10.0 mi South 11.5 mph - N/A   Clear
6:17 PM 60.4 °F - 47.8 °F 63% 30.11 in 10.0 mi South 12.7 mph 17.3 mph N/A   Clear
6:37 PM 59.2 °F - 46.8 °F 63% 30.11 in 10.0 mi South 10.4 mph - N/A   Clear
6:58 PM 58.3 °F - 46.2 °F 64% 30.11 in 10.0 mi South 8.1 mph - N/A   Clear
7:17 PM 56.8 °F - 46.6 °F 69% 30.11 in 10.0 mi SSE 8.1 mph - N/A   Clear
7:38 PM 56.5 °F - 47.3 °F 71% 30.10 in 10.0 mi SSE 8.1 mph - N/A   Clear
7:57 PM 55.6 °F - 47.1 °F 73% 30.11 in 10.0 mi South 8.1 mph - N/A   Clear
8:18 PM 55.2 °F - 46.6 °F 73% 30.10 in 10.0 mi South 8.1 mph - N/A   Clear
8:37 PM 55.4 °F - 46.4 °F 72% 30.11 in 10.0 mi SSE 6.9 mph - N/A   Clear
8:57 PM 54.9 °F - 47.5 °F 76% 30.10 in 10.0 mi SSE 8.1 mph - N/A   Clear
9:18 PM 55.4 °F - 48.4 °F 77% 30.11 in 10.0 mi South 8.1 mph - N/A   Clear
9:37 PM 55.0 °F - 48.9 °F 80% 30.11 in 10.0 mi South 8.1 mph - N/A   Clear
9:57 PM 54.5 °F - 49.5 °F 83% 30.10 in 10.0 mi South 10.4 mph - N/A   Clear
10:17 PM 53.8 °F - 49.8 °F 86% 30.11 in 10.0 mi South 8.1 mph - N/A   Clear
10:37 PM 54.5 °F - 49.6 °F 84% 30.11 in 10.0 mi South 9.2 mph - N/A   Clear
10:58 PM 55.9 °F - 50.0 °F 80% 30.11 in 10.0 mi South 11.5 mph - N/A   Clear
11:17 PM 57.2 °F - 50.2 °F 77% 30.11 in 10.0 mi South 11.5 mph 18.4 mph N/A   Clear
11:37 PM 57.4 °F - 50.0 °F 76% 30.11 in 10.0 mi South 13.8 mph 18.4 mph N/A   Clear
11:58 PM 57.4 °F - 50.0 °F 76% 30.11 in 10.0 mi South 13.8 mph 18.4 mph N/A   Clear